Wind_Speed
42 43 45 48 51 53 52 51 50 50 50 49 47 49 51 53 54 56 60 57 50 48 53 57 57 57 61 62 62 62 61 58 58 60 60 59 61 60 57 55 55 56 58 58 55 51 47 44 43 39 34 33 34 34 30 27 28 32 38 40 39 37 33 32 33 34 39 43 46 47 46 42 36 33 33 32 33 32 28 24 24 25 25 28 28 26
41 40 41 45 48 49 49 48 48 49 49 47 48 50 48 49 51 52 57 58 50 46 50 56 57 56 58 59 59 60 60 58 55 57 58 55 57 58 54 52 51 49 49 51 50 47 45 42 39 35 31 31 31 31 29 27 28 32 39 41 39 37 32 31 32 32 37 41 44 46 48 46 39 34 33 33 34 35 34 29 26 27 28 32 31 28
42 40 40 42 43 43 44 43 44 46 45 44 45 45 44 46 48 48 54 57 53 47 47 54 57 56 56 57 57 57 58 59 53 52 56 54 53 54 51 48 47 45 45 47 45 43 42 41 37 33 33 31 27 25 23 22 25 30 34 38 38 36 32 32 31 30 33 38 42 45 49 48 41 35 33 34 34 36 38 33 28 28 31 33 31 28
43 42 42 41 40 39 39 39 41 42 40 41 43 42 43 46 47 49 55 57 55 51 49 56 59 57 58 57 57 56 57 60 54 49 54 54 51 51 49 46 45 48 49 45 41 39 40 41 39 35 33 28 21 19 17 17 21 24 28 33 37 38 39 40 37 35 39 41 42 45 48 48 41 36 34 32 32 35 38 35 32 30 31 33 33 33
43 44 44 42 41 40 41 42 41 41 41 42 44 44 46 48 49 51 57 59 57 53 53 59 60 58 59 58 58 58 57 59 55 48 51 54 51 50 47 44 44 46 47 44 40 38 35 35 37 35 31 25 18 15 14 13 13 19 25 34 42 46 47 46 41 42 47 48 46 46 47 47 44 40 36 33 33 35 36 37 35 32 32 34 37 40
43 45 43 42 44 44 44 45 43 44 45 45 46 47 48 51 52 52 57 60 58 54 55 60 60 57 58 57 58 58 56 55 54 49 51 53 51 50 46 43 44 44 45 44 43 40 31 25 27 29 27 22 15 11 10 10 10 18 30 41 48 50 48 45 44 47 51 52 52 50 48 47 46 44 40 39 39 37 37 37 36 35 34 37 41 42
44 45 42 41 45 45 46 46 45 47 47 47 48 49 50 51 51 51 55 59 57 54 56 59 58 56 56 57 57 57 54 53 53 51 51 50 49 50 47 42 42 43 43 44 46 45 36 26 23 24 23 19 12 7 8 12 16 24 37 45 48 49 49 50 52 54 56 56 56 53 50 47 47 46 44 44 44 42 40 39 37 36 37 39 43 45
46 46 41 41 45 45 45 46 46 48 48 48 49 50 50 48 48 51 54 56 55 54 55 57 58 54 54 57 57 54 52 51 52 51 50 49 47 48 47 43 40 40 40 39 40 42 39 32 27 23 22 19 15 15 22 30 31 35 44 47 46 45 46 51 56 60 60 59 58 56 52 49 48 47 45 45 46 45 44 42 40 40 41 42 44 46
47 47 42 41 44 45 45 47 47 48 47 47 50 49 46 45 48 51 53 53 54 54 53 55 58 54 52 55 54 51 49 50 52 50 48 47 44 43 45 43 37 36 38 36 32 32 35 34 27 22 24 26 26 27 34 42 43 46 48 46 44 42 41 47 54 59 61 62 61 59 56 53 50 48 46 46 47 45 44 45 46 46 46 46 45 46
47 47 44 42 45 46 46 47 46 45 44 47 48 46 43 46 50 51 50 52 54 53 50 54 57 52 50 51 51 49 47 48 50 49 44 42 40 39 41 41 35 32 35 34 28 27 31 32 27 27 31 34 35 34 36 41 45 49 47 43 43 44 46 51 54 54 55 58 61 60 56 54 51 49 47 47 49 48 46 47 47 46 47 47 45 44
48 47 45 45 47 48 46 46 46 44 43 47 47 45 46 49 51 49 49 52 53 51 49 53 55 50 46 46 47 47 45 44 46 44 39 37 37 36 35 36 33 29 29 30 27 25 29 31 30 33 36 37 38 39 40 42 47 51 49 47 48 49 51 54 54 51 50 51 54 55 54 52 51 49 48 49 50 50 47 47 47 46 45 44 43 42
50 46 46 49 48 47 46 46 47 45 44 48 48 48 48 50 50 49 51 53 51 49 50 51 50 45 43 43 45 43 39 37 38 37 35 33 32 31 32 34 30 24 23 28 27 25 29 31 33 37 40 41 41 42 44 46 49 53 53 51 50 52 55 58 57 54 51 49 49 50 50 50 49 48 48 50 51 50 48 47 47 47 45 43 42 41
52 47 47 49 48 46 47 47 47 46 46 49 50 49 50 51 50 51 53 53 50 48 49 47 43 41 40 40 41 38 33 31 30 30 28 25 23 25 29 30 26 20 21 26 26 26 30 33 35 37 39 41 42 44 46 46 47 51 53 53 53 54 56 58 59 57 53 51 49 47 46 46 46 46 47 48 49 49 47 46 46 46 45 43 41 40
52 48 47 48 48 47 47 48 48 47 47 50 50 50 51 52 51 52 54 53 49 46 45 41 37 37 38 36 35 33 30 30 30 27 22 17 17 19 22 23 19 15 18 22 24 26 31 35 37 37 37 39 41 44 46 46 47 49 51 53 56 57 57 58 60 59 56 54 51 49 47 47 47 47 47 47 47 46 46 45 46 46 45 42 40 38
52 50 49 48 49 48 48 48 49 48 47 49 51 51 52 53 53 54 54 51 47 42 38 36 34 35 33 31 32 31 28 28 29 28 22 17 17 17 19 18 13 12 16 19 22 26 29 34 36 36 36 35 35 41 47 48 49 49 50 52 54 57 58 59 60 59 57 55 52 50 49 50 50 49 49 48 45 45 46 46 45 44 43 42 39 38
53 52 51 50 50 49 49 49 49 48 48 49 51 51 52 53 54 55 53 49 44 37 33 32 31 31 30 29 30 28 26 26 25 24 22 20 18 18 19 18 14 16 21 22 25 30 29 29 32 33 31 28 27 37 47 49 50 52 53 53 53 54 56 58 59 56 55 54 51 47 45 46 47 47 48 47 45 46 47 46 45 43 43 43 41 40
54 54 53 51 50 49 49 49 48 47 49 51 51 51 52 53 53 53 50 44 38 33 31 29 28 28 26 25 25 25 26 27 23 20 22 22 22 22 22 20 18 20 24 25 27 32 30 29 32 32 29 27 28 38 48 51 52 53 54 54 53 54 55 57 58 56 54 53 52 49 46 46 47 48 50 50 48 48 48 47 46 44 44 42 40 41
54 54 53 50 50 50 49 49 48 47 50 51 51 52 53 52 52 50 45 38 34 30 29 28 28 27 23 19 20 23 26 26 19 18 22 25 26 27 26 23 22 25 25 24 25 29 30 29 30 27 25 26 29 38 48 54 56 53 53 56 55 54 56 57 58 58 56 55 52 49 49 50 51 51 52 54 52 50 50 49 48 46 45 43 41 41
55 53 52 50 50 51 49 49 48 48 50 51 51 51 51 52 51 47 39 34 31 28 27 25 26 27 24 20 21 22 23 23 19 18 21 26 30 32 30 27 27 27 25 23 23 25 25 24 24 22 22 27 31 36 42 49 56 57 55 56 57 57 58 59 58 58 58 57 52 48 49 51 52 51 52 55 55 53 53 52 50 48 47 45 43 43
54 53 52 50 50 51 50 49 49 50 50 51 50 49 49 50 47 41 35 31 29 27 26 26 26 24 23 24 25 22 22 24 24 23 23 28 34 36 34 31 29 27 26 25 24 22 22 22 23 24 27 29 31 36 41 44 51 57 57 59 61 61 61 61 60 57 55 55 51 48 49 51 50 49 49 51 54 55 55 54 53 50 48 47 46 45
53 52 52 51 50 50 49 50 51 50 49 49 49 48 48 48 42 35 31 29 28 26 25 26 25 21 21 25 26 23 24 28 30 30 29 31 34 35 35 33 31 30 29 30 28 23 21 22 23 24 28 31 31 35 44 46 46 51 55 58 62 63 61 59 59 57 54 53 52 51 52 52 51 50 49 49 51 53 55 55 54 52 50 49 47 48
51 51 51 49 49 48 48 50 51 49 47 48 49 48 48 45 39 32 28 25 25 24 24 26 23 21 23 25 25 26 28 30 32 32 31 33 34 35 34 33 33 33 33 35 33 28 24 26 29 28 29 34 37 37 44 48 46 47 52 55 59 62 60 56 54 53 52 53 57 61 62 60 57 55 54 52 52 53 54 55 56 55 53 51 49 49
50 50 49 47 47 48 49 50 50 49 48 47 48 46 43 39 35 31 28 24 24 25 28 29 26 24 26 23 22 26 30 34 36 33 32 34 38 39 38 36 36 38 40 40 39 36 34 35 39 41 39 41 44 44 48 50 46 46 51 54 58 57 53 51 48 45 46 52 57 60 64 65 64 63 62 60 57 55 54 54 54 54 54 53 52 51
49 49 48 47 48 50 50 50 50 49 47 46 46 43 38 34 32 31 28 26 26 28 30 31 30 26 25 22 23 28 33 38 38 36 36 37 40 41 40 39 41 43 46 45 42 41 43 43 43 44 45 47 50 52 53 52 47 46 50 54 60 60 52 47 43 39 42 50 51 52 57 61 63 64 64 63 62 60 58 57 56 54 54 54 53 52
48 48 48 48 50 51 50 49 49 49 47 44 42 39 35 32 29 28 26 24 25 28 30 29 27 25 25 27 31 34 37 38 36 35 38 40 41 42 43 42 44 47 50 50 46 44 46 48 47 45 46 51 56 59 58 56 51 50 52 54 59 63 58 51 45 41 43 44 42 44 50 54 55 57 59 61 62 63 63 62 61 58 55 54 54 53
49 48 48 49 50 50 49 48 48 45 43 38 34 32 30 27 25 25 25 23 23 27 30 30 28 27 31 36 38 37 38 41 39 37 39 41 43 45 46 46 46 48 52 54 53 50 49 51 52 51 50 51 55 58 59 58 55 53 55 55 56 58 59 57 52 48 46 41 37 40 46 48 48 48 51 54 58 60 62 63 63 61 59 58 57 56
49 49 49 49 49 49 49 49 46 42 40 37 33 29 25 24 24 24 25 23 21 22 27 32 34 34 36 39 41 41 41 44 45 44 44 44 44 47 49 49 49 49 52 55 58 58 56 55 55 55 54 53 53 53 54 55 55 54 54 56 57 55 53 51 50 48 46 41 37 40 45 47 45 44 46 50 54 57 59 61 62 62 62 62 61 60
49 50 50 51 50 49 48 46 43 41 40 37 34 29 26 24 21 21 25 26 23 22 26 31 36 39 39 39 38 39 41 43 46 48 48 47 46 48 51 51 51 51 52 54 57 59 61 60 59 57 55 54 54 54 53 54 55 54 53 55 58 55 49 46 43 42 42 40 39 41 44 45 43 43 45 48 50 54 57 58 59 60 61 61 61 61
50 51 52 51 50 50 48 46 45 42 39 35 32 29 27 24 19 17 22 26 28 28 29 32 36 39 40 40 38 37 39 41 43 46 49 50 49 49 51 52 53 53 53 54 54 57 59 59 59 57 54 54 55 56 55 55 55 55 54 53 54 52 49 47 44 40 39 39 40 42 45 46 45 44 46 46 47 50 53 55 56 57 58 58 58 58
53 54 53 53 52 52 50 48 45 41 37 35 31 29 27 24 20 19 20 25 30 32 33 36 39 41 40 41 42 41 41 40 40 41 45 49 49 49 51 53 53 53 54 55 55 56 56 55 55 54 53 54 55 57 57 56 56 57 55 53 52 50 48 49 47 42 38 36 38 41 44 45 46 47 48 48 48 49 51 51 52 52 52 53 54 54
55 54 53 52 52 51 48 47 44 38 36 37 36 34 30 26 26 26 25 27 31 34 37 39 41 44 45 43 43 44 43 42 41 40 41 45 47 48 50 51 52 53 53 54 55 56 55 55 54 53 53 55 56 58 60 57 57 58 56 53 54 52 48 46 44 41 38 36 38 41 42 43 46 48 48 47 47 47 46 46 46 48 50 51 52 51
56 55 54 53 52 50 47 46 44 40 38 39 40 39 34 31 32 32 31 32 33 36 39 39 40 44 47 47 46 46 45 43 42 41 40 41 43 45 48 49 49 51 52 52 52 53 53 53 54 54 54 55 57 59 61 59 58 59 57 55 56 55 50 46 42 39 38 38 38 38 40 42 43 42 40 41 43 43 43 43 45 47 49 50 50 48
56 56 56 55 54 52 50 47 45 44 43 42 43 43 40 39 39 38 37 37 38 40 42 42 43 45 47 48 48 49 49 46 44 42 41 40 40 41 44 45 45 46 49 50 49 49 50 51 53 54 54 55 57 59 61 61 60 60 59 57 56 55 53 50 45 41 40 42 41 39 39 40 40 38 35 37 40 42 43 44 45 46 47 48 48 48
57 57 56 55 54 52 50 47 44 45 47 46 45 46 45 44 43 43 44 44 43 44 46 48 48 47 47 49 49 49 49 48 47 45 43 41 40 39 39 41 42 43 45 47 46 46 48 50 51 52 53 54 56 58 61 62 61 62 63 59 55 53 52 50 48 45 43 43 43 44 44 43 42 42 41 41 42 44 45 46 45 46 47 47 47 48
57 57 56 55 55 53 51 48 46 46 47 46 45 46 47 47 47 48 50 51 49 48 48 50 52 51 50 50 50 49 48 48 48 48 46 44 43 41 37 37 40 42 43 44 45 45 46 49 50 50 52 54 56 58 61 62 62 64 65 63 58 55 52 48 47 48 46 45 45 46 47 48 47 47 47 47 48 49 50 50 48 47 48 48 48 48
58 58 57 56 56 55 53 51 49 48 48 48 48 48 48 48 49 50 53 54 53 52 51 51 52 53 53 53 52 50 49 49 49 48 47 46 45 44 40 37 37 40 42 43 45 45 45 47 48 50 51 53 56 59 61 62 64 65 66 65 63 60 57 53 49 47 48 48 48 48 49 50 51 51 51 52 52 52 53 53 52 52 52 52 52 51
60 60 59 58 57 56 55 53 51 51 51 50 51 52 51 50 50 50 53 54 54 53 53 53 53 53 54 55 55 53 51 50 50 50 49 48 46 45 43 40 37 38 40 42 44 45 46 47 48 50 52 54 56 59 61 62 64 66 66 66 65 65 64 61 55 52 51 51 50 50 51 51 51 51 52 52 52 52 53 54 54 55 56 57 56 55
61 61 60 59 58 57 55 54 53 54 54 53 54 56 56 54 52 51 51 53 52 52 53 54 54 53 54 54 56 57 55 52 51 51 50 48 47 45 44 43 40 38 39 41 43 45 46 48 49 51 52 54 56 58 61 63 65 66 66 66 66 68 67 65 61 57 55 54 53 53 53 52 52 51 51 51 51 52 54 55 55 56 58 60 59 57
63 62 61 59 58 57 56 56 55 55 55 56 58 59 58 56 55 53 52 51 51 51 51 52 53 54 54 54 55 57 57 56 55 54 52 50 48 47 45 44 43 40 39 40 42 44 47 49 50 51 53 55 57 59 62 64 65 66 66 67 68 70 70 68 64 60 59 58 57 56 55 53 53 53 51 51 51 52 54 56 57 58 60 62 61 60
64 63 62 60 59 58 57 56 56 55 56 57 59 60 60 58 56 55 53 51 50 50 51 51 52 53 53 54 55 56 57 56 56 56 54 52 50 49 48 47 45 44 42 41 42 44 47 50 50 51 54 56 59 62 64 66 67 67 67 68 69 70 71 70 67 64 61 59 58 57 56 56 57 57 56 55 55 55 56 58 60 61 63 63 62 61
65 63 62 59 58 57 56 56 57 57 57 58 60 61 61 59 56 55 54 51 48 47 48 49 50 51 51 51 52 54 55 55 55 55 54 53 52 51 50 49 48 46 44 43 42 43 47 50 50 52 56 59 61 64 67 68 69 69 69 69 69 70 71 72 71 68 65 62 61 59 58 58 59 60 61 61 61 60 60 61 61 62 63 64 65 65
60 59 58 56 56 57 57 57 59 59 58 58 59 61 60 58 56 54 53 52 48 44 43 44 46 48 48 48 49 51 52 53 53 54 53 53 52 51 50 50 49 47 46 44 43 43 47 51 52 54 58 61 65 67 70 71 72 71 71 70 70 70 71 72 73 72 68 66 64 63 62 61 62 62 63 64 64 65 65 65 64 64 65 65 66 67
54 55 55 55 57 59 60 60 61 60 59 58 58 59 59 58 56 53 51 51 49 46 41 40 41 44 45 46 47 48 50 51 52 52 52 52 52 51 50 50 50 49 48 46 45 44 46 50 53 55 59 64 68 70 72 74 74 73 72 72 71 71 71 72 73 74 72 70 68 68 67 66 66 65 65 64 65 66 67 68 68 68 68 68 68 69
52 53 54 56 59 62 63 62 62 61 59 57 56 56 56 56 55 52 50 49 49 48 45 42 40 41 43 44 46 47 48 49 51 51 51 51 51 51 51 51 51 51 50 48 47 46 45 49 54 56 59 65 70 73 74 75 76 76 75 74 73 73 73 73 73 74 74 73 72 71 71 71 70 70 68 67 66 67 68 69 69 70 71 71 71 72
53 53 54 56 60 63 63 62 62 62 59 57 55 54 53 53 52 51 50 49 47 47 47 45 44 43 43 44 45 47 49 50 50 51 51 51 51 51 51 52 52 52 51 50 49 48 46 48 52 56 60 65 71 75 75 76 77 78 77 76 75 75 75 75 75 76 76 76 75 75 74 74 74 74 73 72 71 70 70 70 70 71 71 72 72 73
53 54 55 58 61 62 63 63 63 62 60 57 54 51 50 50 50 49 49 49 48 48 47 47 46 45 45 45 45 47 49 51 52 52 53 52 52 52 53 53 53 52 52 51 50 50 49 48 50 55 60 64 70 75 77 77 78 79 80 79 78 76 77 77 77 78 78 79 79 78 78 78 77 77 77 76 75 74 73 72 72 71 72 73 73 74
53 55 57 59 62 63 63 64 63 62 60 57 54 51 49 48 48 48 49 50 50 51 51 50 49 49 48 48 47 48 49 51 53 54 55 55 54 54 54 55 55 54 53 52 52 52 51 50 50 53 57 62 68 74 78 79 79 80 81 82 81 79 78 79 79 80 80 81 82 82 82 82 81 81 81 80 79 78 77 76 76 75 74 74 75 75
51 54 57 60 62 63 64 64 63 62 60 58 55 52 50 49 48 48 49 51 52 53 54 54 54 53 52 52 51 51 51 52 54 56 58 58 58 57 57 57 57 56 55 54 54 54 54 54 53 53 55 60 65 71 76 80 82 82 82 83 83 82 81 80 81 82 82 83 84 85 86 86 85 85 84 84 83 83 81 81 80 80 80 79 79 79
48 52 55 59 61 63 64 64 63 62 60 58 56 54 52 51 50 50 50 51 53 55 56 56 57 57 57 56 55 54 54 54 55 57 59 60 61 60 59 59 58 58 57 57 57 57 57 57 57 56 56 57 62 67 73 78 82 84 85 85 85 86 85 84 83 83 83 84 86 87 88 89 89 89 89 88 87 87 86 85 84 84 83 83 83 84
46 49 52 56 59 62 63 63 63 62 60 58 55 53 52 51 50 50 50 51 52 54 55 57 58 60 60 60 59 58 58 58 58 59 60 61 62 62 61 61 60 60 60 60 59 59 60 60 60 60 59 59 60 63 68 74 79 84 87 88 88 88 88 88 87 86 85 86 86 88 89 90 91 92 92 91 91 91 90 90 89 88 87 87 86 86
42 45 48 52 55 58 59 60 60 59 58 56 53 52 51 50 50 50 50 50 51 52 54 55 58 60 62 64 64 63 62 61 61 62 62 63 63 63 63 63 63 63 63 63 63 63 62 62 62 62 63 63 63 63 65 69 75 81 86 89 90 90 90 91 91 90 89 89 88 89 90 91 92 93 93 93 93 93 93 93 93 93 92 92 92 91
Wind_Direction
259 257 256 253 252 252 253 254 255 257 258 259 260 258 258 262 264 265 265 263 260 260 262 263 262 262 264 265 265 264 263 262 263 263 261 261 262 260 258 255 252 251 252 252 253 251 252 258 261 264 266 265 265 264 264 258 247 241 238 236 232 229 234 239 240 239 233 230 228 226 227 227 228 231 232 234 238 243 248 249 247 247 249 251 245 235
260 258 256 254 252 253 254 255 256 257 257 258 259 259 260 262 264 266 268 266 262 261 263 264 263 263 264 267 268 268 267 265 263 264 263 261 261 261 258 256 253 250 247 245 245 245 250 256 253 254 260 264 266 264 264 256 239 233 235 234 230 226 231 239 240 239 236 234 232 229 227 228 232 235 235 240 245 248 255 259 258 255 254 253 245 239
259 258 257 255 255 254 255 255 255 255 256 257 259 260 261 260 262 265 267 268 266 263 264 266 266 265 266 267 268 269 269 267 264 264 265 262 261 261 258 255 250 243 239 239 240 244 250 250 245 251 260 263 262 257 259 255 237 232 233 232 232 229 229 234 234 230 228 229 229 227 226 229 234 236 241 250 253 252 256 263 268 262 256 251 240 234
260 258 257 257 258 258 257 255 254 256 257 258 259 260 261 262 263 264 265 267 268 268 266 265 266 267 267 267 267 266 267 268 266 264 265 265 263 261 259 256 249 242 239 237 235 238 244 246 246 252 256 257 260 255 261 264 241 234 235 229 228 229 229 231 232 230 227 224 223 224 225 230 235 240 246 250 248 248 254 264 271 266 254 244 235 235
261 259 257 258 260 259 258 256 257 259 259 259 261 262 263 264 265 266 268 268 269 269 268 266 266 266 267 266 266 265 264 266 267 264 264 265 263 261 259 256 250 243 237 232 230 232 239 246 246 247 247 247 254 253 265 279 251 236 234 227 226 229 231 232 233 233 231 226 224 225 227 233 239 244 245 242 244 250 258 268 271 263 252 243 239 241
262 261 260 260 260 259 259 260 261 261 261 261 263 264 265 266 266 268 271 271 271 269 268 267 268 267 267 266 265 265 264 264 265 263 260 262 263 263 260 256 251 244 234 228 230 232 237 244 242 238 236 234 237 248 273 285 253 235 232 228 228 229 231 232 232 232 232 230 229 229 232 236 241 245 243 241 247 255 264 271 269 261 254 247 244 247
262 262 262 261 260 260 261 262 262 262 263 263 264 265 265 267 269 271 271 272 272 271 270 269 269 269 269 268 266 265 264 263 262 260 259 260 261 262 261 256 250 247 240 232 231 235 237 238 234 226 220 218 217 228 249 236 224 228 232 232 230 227 228 232 233 232 233 232 232 233 235 239 243 245 244 243 247 255 264 268 265 261 258 252 248 250
261 262 263 262 261 262 262 263 263 263 264 266 266 266 267 270 272 271 270 272 273 273 273 272 271 269 269 268 266 265 264 262 260 259 259 259 259 259 261 259 251 247 246 240 234 234 233 228 226 216 204 203 201 203 215 214 211 220 228 231 230 227 230 236 237 235 234 234 235 237 239 242 244 246 247 247 248 254 260 262 262 263 261 256 252 251
260 261 263 263 263 264 264 264 264 265 267 269 268 269 271 272 270 269 271 274 276 275 275 275 273 270 269 269 268 266 262 260 260 258 258 259 259 259 259 260 255 245 246 245 236 229 223 217 215 206 199 201 199 202 215 215 210 217 224 228 230 226 226 235 237 235 235 236 238 240 242 243 243 245 247 247 248 250 254 258 264 267 265 260 257 255
259 261 262 262 263 263 263 265 266 268 270 270 270 272 274 272 270 272 275 277 276 276 278 277 275 271 270 269 268 265 261 259 258 258 259 259 258 257 256 258 257 245 242 244 237 224 215 207 203 199 200 203 200 202 217 221 218 221 224 226 229 225 222 229 234 232 233 236 237 240 242 242 242 246 247 246 246 248 253 261 266 267 266 263 261 259
259 260 261 259 259 261 264 267 269 269 270 271 273 275 274 274 275 277 278 278 278 279 279 277 274 273 271 267 264 261 259 258 259 260 259 257 255 254 254 255 253 243 238 241 237 222 204 198 202 204 203 205 206 205 212 221 222 223 224 224 226 226 224 229 235 234 231 233 235 237 239 241 243 247 246 244 247 250 256 262 262 263 265 264 262 260
258 258 258 258 259 263 266 267 268 268 270 271 274 275 276 277 279 281 281 281 281 281 279 275 274 273 267 262 260 259 259 259 260 259 254 252 254 252 248 250 250 242 233 234 231 213 198 198 206 209 209 212 216 215 216 220 222 222 223 224 226 228 228 230 234 235 233 232 234 236 238 240 243 245 245 245 249 252 257 260 260 261 264 264 262 261
259 259 260 262 263 264 265 266 267 269 271 272 274 276 278 280 282 283 284 284 284 283 279 274 273 269 262 258 259 259 256 252 252 254 251 249 250 245 241 244 244 236 226 226 219 201 196 202 205 209 215 218 219 221 224 227 228 225 224 225 227 229 231 233 234 236 236 233 233 235 236 238 239 242 244 247 251 253 254 256 257 259 261 263 264 263
261 262 261 263 263 263 265 267 269 271 272 274 276 278 279 281 284 285 286 286 286 282 277 273 267 262 259 258 256 254 250 246 244 247 249 241 232 231 233 236 237 227 217 217 210 195 196 201 203 207 214 216 218 224 228 233 234 230 227 228 229 230 232 235 236 237 239 237 235 235 237 238 241 244 247 249 252 251 250 252 255 257 260 263 265 264
258 261 261 261 262 264 266 268 270 272 274 276 277 279 281 283 285 286 287 288 286 279 273 269 262 256 256 255 253 249 245 243 243 242 241 230 221 223 224 224 219 197 194 205 204 194 196 204 202 202 208 213 224 234 235 236 236 232 231 233 234 233 234 236 238 240 242 242 240 240 241 242 245 250 251 250 250 248 248 251 254 257 260 263 265 265
257 260 261 262 263 265 267 268 271 274 276 276 277 279 282 283 286 288 289 288 283 274 266 264 261 257 253 249 250 248 240 236 237 236 229 221 218 216 209 201 184 176 182 189 190 186 193 208 206 202 208 214 228 242 242 240 237 233 233 236 238 239 238 237 238 241 244 244 242 242 244 245 247 252 253 250 248 248 248 251 253 257 260 262 265 265
257 259 261 263 265 266 267 270 273 275 275 276 279 281 282 283 286 289 290 285 277 270 263 258 259 260 256 249 245 243 234 230 233 232 221 215 212 202 193 189 180 180 183 179 177 179 187 204 207 207 218 222 229 244 248 246 241 235 234 236 238 241 242 240 239 240 242 244 244 244 248 251 252 254 254 251 249 249 250 252 254 257 260 262 263 264
257 260 263 265 266 267 267 269 272 274 275 277 279 281 282 285 288 290 288 281 273 268 260 252 250 252 253 247 237 233 230 226 225 224 214 209 207 197 189 187 181 176 177 174 176 179 183 194 200 206 226 235 238 248 252 250 245 239 235 235 237 241 243 243 241 240 242 244 245 245 248 254 256 254 253 250 247 248 250 252 254 256 259 261 262 263
259 261 263 264 265 266 268 270 272 273 275 277 279 281 284 287 289 288 282 274 270 267 259 251 245 243 242 236 228 225 223 218 214 217 208 200 201 200 195 189 181 178 180 178 177 181 185 193 199 203 220 235 242 248 251 249 245 240 236 233 233 237 242 243 242 242 243 245 246 246 245 249 253 253 251 248 246 246 248 250 251 254 258 260 260 260
260 261 262 262 264 266 269 271 272 273 275 278 280 282 285 287 287 283 276 270 267 263 258 251 244 239 233 230 227 222 215 212 211 215 214 202 197 200 200 193 186 184 186 182 177 184 192 196 200 206 215 226 237 244 245 242 238 236 233 230 228 232 237 240 241 242 243 244 246 246 244 247 251 253 252 250 247 247 247 248 250 253 256 257 257 256
258 259 260 261 263 265 269 270 271 273 276 278 280 283 286 286 282 276 270 267 264 260 257 252 243 232 223 222 224 219 210 210 212 213 215 206 197 199 201 199 195 190 188 186 182 184 192 195 203 210 213 216 224 236 240 237 234 232 232 230 228 229 232 235 237 240 241 243 245 245 245 248 251 252 252 252 251 250 249 249 251 253 255 256 256 256
256 257 259 261 264 266 267 268 271 274 277 280 282 285 287 284 276 270 266 261 255 251 252 251 242 226 219 219 218 214 208 209 212 213 213 208 202 205 207 205 202 197 192 191 188 186 189 198 204 203 204 210 216 228 237 237 234 231 231 231 229 231 233 231 234 238 240 242 245 246 247 248 248 249 252 255 255 254 254 253 253 254 256 256 256 256
254 257 259 261 264 266 266 268 272 276 278 280 284 286 285 278 270 266 261 251 242 241 244 247 242 224 217 219 221 219 215 214 214 216 217 211 209 215 217 211 205 200 195 193 192 190 194 201 204 203 205 210 215 223 232 235 232 229 229 228 227 230 231 228 230 234 236 239 242 245 247 248 248 250 253 255 255 255 256 256 255 256 256 257 257 258
255 258 259 261 262 263 266 269 274 277 279 281 285 284 278 270 267 264 259 249 240 239 239 241 241 228 210 208 220 223 221 219 217 218 218 214 212 217 219 214 210 205 199 196 197 197 199 204 206 206 210 215 217 223 229 232 232 231 230 228 225 225 225 223 224 225 228 235 241 244 245 247 249 251 254 255 254 253 254 254 254 256 257 257 258 260
254 256 257 258 260 263 266 270 273 276 279 282 283 278 271 266 264 263 261 251 238 236 233 229 233 228 210 205 214 221 221 218 216 217 218 216 213 216 218 215 212 208 202 200 203 204 205 209 210 211 216 221 223 226 230 232 234 235 232 227 225 224 223 221 222 223 228 234 240 244 245 247 250 253 255 255 254 253 254 253 253 255 257 257 259 261
254 254 255 257 259 262 265 268 271 274 277 278 274 269 266 262 255 254 258 250 232 230 230 224 221 223 220 215 212 215 218 217 215 216 217 215 211 212 216 217 214 211 207 205 206 209 211 213 216 217 221 225 226 229 232 232 232 231 228 224 223 224 224 223 223 226 230 230 232 239 244 245 247 252 254 253 253 254 255 254 253 254 256 258 260 262
253 253 254 255 257 259 261 265 268 271 275 273 267 265 263 256 249 245 243 236 225 229 234 227 221 222 228 225 217 215 218 220 220 219 217 217 213 210 214 218 218 216 214 212 211 212 214 217 220 221 224 228 230 231 230 227 226 226 224 221 221 221 222 220 219 223 226 224 224 233 240 242 243 247 250 251 252 254 256 256 256 256 257 259 261 263
252 253 252 253 254 256 258 262 265 270 273 268 262 260 256 253 253 245 233 221 213 222 234 232 228 228 233 234 225 220 222 223 223 222 222 222 219 213 213 217 221 221 219 218 217 217 219 222 224 226 229 231 232 231 227 222 222 222 220 220 220 219 217 214 214 221 225 222 222 229 237 240 240 244 248 251 253 255 256 257 256 256 258 259 261 263
249 248 248 249 251 253 257 260 264 268 267 259 255 256 253 250 250 245 233 218 209 217 228 232 232 232 235 237 231 226 227 227 224 224 225 226 225 221 217 218 222 223 222 222 222 222 224 226 227 229 232 231 230 228 224 219 218 218 217 217 217 216 216 215 217 222 223 221 224 230 236 240 240 243 247 251 252 253 254 255 255 257 258 259 259 260
245 244 246 248 251 255 258 260 264 265 256 248 249 250 245 240 238 239 233 216 209 219 229 231 231 231 233 236 235 232 232 231 230 229 228 228 228 227 224 222 222 223 224 224 225 225 227 228 228 229 231 229 226 225 221 217 215 214 213 213 211 210 211 214 217 221 220 220 225 231 237 241 241 241 245 249 250 249 250 252 254 255 254 254 256 258
242 243 246 249 252 255 257 259 263 262 249 242 244 243 235 228 231 236 233 221 215 221 230 234 234 232 231 234 236 237 236 235 235 235 233 230 230 230 228 226 225 225 225 225 226 226 227 228 227 228 228 226 223 221 219 215 213 211 210 210 209 206 206 210 215 219 220 221 227 234 238 240 240 241 245 248 248 248 249 250 250 250 252 255 259 262
241 242 245 247 249 252 254 257 261 259 248 241 242 241 232 221 224 231 232 231 229 228 231 236 238 237 235 235 236 239 239 237 236 237 237 234 232 232 231 229 229 230 229 228 227 226 225 225 225 225 225 223 220 218 217 214 212 210 208 208 207 204 206 211 214 217 219 220 225 231 235 237 238 241 245 247 246 247 249 250 251 254 257 259 262 263
242 244 245 247 250 252 254 257 260 255 247 241 241 240 233 221 219 225 229 231 232 232 233 235 239 240 237 237 239 241 242 241 238 237 238 237 236 235 234 232 233 234 233 231 229 226 223 222 222 222 222 221 218 216 215 214 212 210 207 206 206 205 208 212 213 215 218 219 222 226 231 233 233 230 233 240 244 247 249 251 254 257 260 262 263 264
243 244 246 248 251 252 253 257 257 251 245 241 240 239 235 226 219 220 226 229 229 231 234 235 238 239 237 236 238 241 243 244 241 238 238 240 240 239 236 235 235 235 234 231 229 226 224 222 220 219 219 219 216 214 214 214 213 211 208 206 206 206 208 211 213 213 215 219 222 225 228 231 229 226 228 235 242 246 249 251 254 257 259 262 264 266
243 245 247 248 250 251 253 254 253 247 242 240 239 238 236 232 225 222 224 227 227 229 234 237 238 238 237 236 237 239 242 244 245 243 240 241 243 242 238 238 238 237 235 232 229 227 225 222 220 218 217 217 214 212 213 214 213 212 210 209 209 209 208 210 212 214 217 220 223 225 227 229 229 228 230 237 242 246 248 250 253 256 259 262 264 266
243 244 245 247 249 251 252 253 250 244 240 239 238 237 236 234 231 228 227 228 229 230 233 236 238 237 236 235 236 237 239 241 244 246 244 242 243 243 242 241 240 238 236 234 230 228 225 222 219 218 216 216 214 212 212 214 214 213 213 213 214 212 210 210 211 212 215 219 222 223 225 228 229 231 234 240 244 247 250 252 254 256 259 261 263 265
243 244 245 246 248 250 251 252 248 240 237 237 237 238 237 236 235 234 233 233 233 233 234 236 237 237 236 235 235 236 237 238 240 244 245 244 243 244 244 243 241 240 238 236 232 228 225 222 219 218 216 215 213 212 212 213 213 214 214 214 214 213 212 211 211 212 214 217 220 223 225 229 231 233 236 241 245 248 252 254 256 258 260 261 262 264
242 244 245 246 248 249 250 249 244 238 235 236 237 237 238 238 238 238 237 238 238 237 236 237 238 239 239 238 236 236 237 239 240 241 244 244 244 245 245 243 242 241 239 237 235 230 225 222 219 218 216 214 213 211 211 212 213 214 215 214 213 213 212 212 213 214 215 218 221 223 226 229 233 234 237 242 246 250 253 255 257 259 260 260 260 261
241 243 244 246 247 249 248 246 242 238 237 237 238 238 238 238 239 239 239 240 241 241 240 239 239 240 240 240 239 238 238 239 241 242 244 245 246 246 246 245 244 242 239 238 237 233 227 224 220 218 216 214 212 210 210 211 212 213 214 214 213 213 213 212 214 216 218 220 222 224 226 230 233 235 237 241 246 250 252 253 254 255 256 258 259 260
241 242 244 245 246 246 245 243 240 238 238 239 240 240 239 238 239 240 240 240 240 242 243 243 241 241 241 242 241 240 240 240 242 244 245 246 247 248 248 247 245 244 241 239 238 235 230 225 221 218 216 214 211 209 210 210 211 211 212 212 213 214 213 212 213 217 220 222 224 226 227 230 233 234 235 238 242 245 248 250 252 253 255 257 259 260
241 242 243 244 244 243 242 242 242 240 238 239 240 240 241 240 239 239 241 242 241 241 243 244 244 243 242 242 242 242 241 241 242 243 245 245 246 247 248 247 246 244 242 239 238 237 233 228 222 218 216 214 210 209 210 211 212 212 212 212 213 214 214 213 213 216 220 223 225 226 228 230 233 235 236 238 241 243 246 249 252 254 257 259 260 261
239 240 240 239 240 241 241 242 243 242 240 239 239 241 242 242 241 239 241 245 247 245 243 243 245 246 245 243 242 242 242 242 242 243 244 245 245 245 246 247 246 245 243 240 238 237 235 231 225 219 216 214 211 210 212 213 213 214 214 214 215 216 216 216 215 217 220 223 225 226 227 230 234 236 238 240 242 245 247 249 252 255 257 260 262 263
234 235 236 235 237 239 240 240 241 242 241 239 239 241 242 243 244 243 243 246 250 251 248 243 243 246 247 246 244 243 242 242 242 243 243 244 245 245 245 245 245 244 243 241 238 237 235 233 228 222 218 215 212 212 213 215 215 216 216 217 217 218 219 219 219 219 220 223 225 226 227 230 233 236 238 241 244 247 249 251 253 256 258 260 262 263
231 231 231 232 234 237 239 240 241 242 243 241 240 240 241 243 244 245 245 246 249 251 252 250 246 245 246 247 246 245 244 243 243 243 243 244 245 245 244 244 244 243 242 241 239 237 235 234 231 226 221 217 215 214 215 216 217 218 219 219 220 220 221 222 222 222 222 223 225 227 228 230 233 236 238 240 243 247 250 252 254 256 258 259 261 262
229 229 228 230 232 235 237 239 241 243 245 245 244 243 243 243 244 245 246 247 248 250 252 254 252 248 247 246 247 246 245 245 244 244 243 243 244 245 245 244 244 243 242 241 240 238 235 234 233 229 224 220 218 217 217 218 219 220 221 221 222 223 223 224 225 226 227 227 227 228 229 231 233 235 238 240 243 246 249 251 253 255 257 259 260 261
227 226 226 227 230 234 236 238 241 243 246 248 248 247 246 246 246 247 248 249 250 252 253 255 255 253 250 248 247 246 246 246 246 245 244 243 243 244 245 245 244 243 242 242 242 240 238 235 234 232 228 225 221 219 219 220 221 222 223 224 224 225 226 227 227 228 230 231 231 231 232 233 234 236 238 240 242 245 247 250 252 254 256 258 260 261
224 224 224 226 229 232 235 238 241 244 247 249 250 251 250 249 248 248 249 251 252 253 254 255 256 255 254 251 249 248 247 246 246 247 246 245 244 243 244 245 245 244 242 241 241 241 240 237 235 233 231 229 226 223 222 222 223 224 225 226 226 227 228 229 230 230 231 232 233 234 235 235 236 237 238 240 242 244 246 248 250 252 254 255 257 258
223 224 225 226 229 231 235 238 242 245 248 250 252 253 253 253 252 250 249 250 251 252 253 254 255 255 255 253 251 250 248 247 247 247 247 247 245 244 243 243 244 244 243 242 241 240 240 238 237 235 233 232 230 228 225 224 225 226 226 227 228 229 230 230 232 232 233 234 235 236 236 237 238 239 240 241 243 244 246 248 249 251 252 254 255 256
224 225 226 227 230 232 235 239 243 246 249 251 253 254 255 255 255 254 253 251 251 251 252 253 254 255 255 254 252 250 249 248 247 247 248 248 247 246 244 243 243 244 244 243 242 241 240 239 238 236 234 233 232 231 229 228 227 227 228 229 230 231 231 232 233 234 235 236 236 237 238 238 239 240 241 242 244 245 247 248 250 251 252 253 254 256
226 227 228 229 231 233 237 240 243 247 250 254 256 258 259 259 259 259 259 257 256 255 254 254 254 254 255 254 253 251 249 247 246 246 247 248 248 248 247 246 244 243 243 243 242 242 241 240 239 238 236 235 233 232 231 231 230 229 229 230 231 232 233 234 234 235 236 237 239 239 240 240 241 241 242 243 245 246 248 249 250 251 252 253 254 255
229 231 232 233 234 237 240 243 246 249 253 257 260 261 263 264 265 265 264 263 262 260 258 256 254 254 254 254 254 254 252 250 247 246 246 246 246 247 247 246 245 244 243 243 242 242 241 241 240 240 239 237 236 234 232 232 232 231 231 231 232 233 234 235 236 237 237 238 239 241 242 242 243 243 244 245 246 247 248 249 251 252 253 254 255 255
Height
10613 10614 10617 10617 10618 10619 10621 10624 10626 10627 10628 10631 10633 10632 10632 10630 10630 10630 10627 10634 10645 10646 10643 10641 10643 10644 10639 10641 10645 10650 10654 10657 10659 10660 10665 10668 10666 10668 10675 10679 10681 10683 10683 10681 10681 10684 10688 10694 10699 10701 10702 10701 10702 10705 10708 10713 10716 10716 10716 10715 10715 10716 10717 10719 10721 10723 10723 10723 10725 10728 10730 10732 10731 10730 10731 10732 10733 10734 10734 10734 10735 10736 10737 10737 10737 10737
10608 10610 10611 10611 10612 10615 10617 10621 10622 10622 10623 10626 10625 10624 10629 10628 10626 10625 10620 10624 10637 10640 10637 10633 10635 10638 10636 10637 10639 10642 10644 10648 10652 10652 10656 10661 10658 10660 10667 10670 10672 10674 10673 10671 10674 10679 10685 10691 10695 10697 10698 10698 10700 10703 10706 10710 10714 10717 10717 10716 10717 10718 10719 10721 10722 10722 10721 10721 10722 10724 10726 10726 10724 10724 10726 10728 10730 10731 10730 10731 10732 10733 10733 10733 10733 10734
10603 10605 10606 10606 10609 10611 10614 10617 10616 10616 10619 10620 10619 10621 10624 10622 10622 10623 10615 10616 10626 10633 10633 10627 10627 10631 10632 10633 10634 10636 10637 10637 10645 10647 10646 10652 10653 10653 10659 10663 10664 10665 10664 10664 10667 10674 10682 10688 10692 10694 10695 10696 10699 10702 10705 10708 10712 10717 10719 10721 10722 10722 10723 10723 10722 10721 10719 10716 10717 10719 10720 10720 10718 10719 10720 10722 10725 10727 10727 10726 10728 10729 10729 10729 10729 10729
10599 10600 10601 10603 10606 10608 10610 10611 10610 10611 10615 10616 10615 10618 10618 10617 10618 10618 10611 10612 10618 10625 10627 10621 10620 10625 10626 10628 10628 10630 10631 10629 10637 10643 10639 10642 10647 10647 10651 10656 10657 10657 10660 10662 10664 10670 10677 10683 10688 10691 10693 10694 10697 10700 10703 10706 10711 10717 10721 10723 10722 10718 10715 10714 10717 10717 10712 10709 10710 10712 10714 10713 10713 10714 10715 10717 10720 10723 10723 10723 10724 10725 10725 10725 10724 10723
10594 10594 10597 10600 10602 10604 10604 10605 10607 10609 10611 10611 10612 10614 10614 10612 10614 10612 10606 10607 10613 10618 10618 10612 10615 10620 10619 10620 10621 10622 10626 10624 10629 10637 10635 10634 10637 10640 10645 10650 10650 10651 10657 10661 10662 10667 10674 10680 10684 10688 10689 10691 10695 10699 10702 10706 10711 10717 10718 10716 10711 10705 10703 10705 10710 10710 10706 10704 10704 10705 10707 10707 10708 10710 10711 10714 10716 10718 10718 10719 10720 10721 10721 10721 10720 10720
10590 10589 10594 10597 10597 10599 10599 10601 10604 10604 10605 10607 10608 10609 10608 10607 10608 10609 10603 10600 10606 10611 10609 10606 10609 10613 10612 10613 10614 10615 10620 10621 10624 10630 10629 10628 10630 10632 10638 10644 10644 10646 10653 10658 10659 10664 10672 10678 10680 10683 10684 10688 10693 10698 10703 10707 10711 10712 10708 10701 10696 10696 10699 10702 10703 10700 10698 10698 10697 10699 10701 10703 10704 10705 10708 10710 10712 10713 10714 10715 10716 10717 10718 10718 10717 10718
10585 10585 10591 10593 10592 10593 10595 10597 10599 10599 10600 10602 10603 10603 10603 10603 10604 10604 10599 10595 10599 10602 10601 10600 10603 10606 10606 10606 10606 10609 10614 10616 10618 10621 10623 10625 10626 10626 10630 10636 10639 10642 10648 10653 10656 10662 10670 10674 10676 10677 10679 10685 10691 10698 10704 10705 10705 10702 10692 10686 10688 10693 10695 10694 10692 10691 10691 10691 10692 10695 10697 10699 10701 10702 10704 10707 10709 10710 10711 10712 10713 10713 10714 10714 10714 10715
10580 10580 10587 10588 10587 10589 10590 10592 10593 10593 10595 10597 10597 10597 10598 10600 10600 10597 10592 10591 10593 10595 10596 10595 10595 10599 10600 10597 10599 10604 10607 10609 10611 10615 10618 10620 10622 10622 10623 10629 10635 10638 10641 10647 10653 10658 10664 10667 10670 10674 10678 10682 10685 10690 10692 10690 10690 10685 10675 10675 10681 10687 10690 10688 10685 10686 10686 10687 10689 10692 10694 10697 10698 10699 10701 10704 10706 10707 10707 10708 10708 10710 10710 10710 10711 10712
10575 10576 10582 10583 10582 10584 10585 10586 10587 10589 10592 10592 10589 10591 10595 10596 10592 10589 10588 10588 10587 10588 10592 10590 10586 10592 10594 10591 10593 10598 10601 10603 10604 10609 10613 10615 10619 10620 10619 10622 10630 10635 10636 10641 10648 10653 10656 10661 10667 10671 10673 10672 10673 10674 10673 10673 10674 10668 10665 10671 10676 10681 10684 10680 10676 10678 10681 10683 10686 10688 10690 10693 10694 10695 10698 10701 10702 10703 10703 10704 10704 10705 10705 10706 10707 10709
10570 10571 10576 10579 10577 10578 10579 10580 10582 10585 10587 10585 10583 10587 10589 10587 10584 10584 10586 10584 10581 10584 10589 10584 10578 10585 10588 10586 10587 10590 10594 10597 10598 10602 10609 10613 10615 10616 10616 10617 10625 10632 10633 10636 10642 10646 10650 10657 10663 10665 10664 10663 10661 10660 10661 10665 10667 10664 10666 10672 10672 10674 10674 10668 10665 10670 10675 10678 10681 10683 10685 10688 10690 10692 10694 10697 10697 10698 10699 10700 10700 10701 10701 10701 10704 10706
10565 10568 10571 10572 10572 10572 10575 10577 10578 10581 10581 10578 10578 10581 10582 10579 10578 10580 10580 10577 10577 10581 10583 10576 10573 10579 10582 10580 10580 10583 10588 10591 10593 10599 10606 10609 10610 10612 10613 10614 10619 10627 10631 10633 10637 10641 10646 10652 10656 10656 10657 10657 10654 10651 10651 10654 10658 10660 10664 10666 10666 10668 10668 10664 10663 10666 10671 10674 10676 10679 10682 10684 10687 10689 10691 10693 10693 10694 10696 10697 10696 10696 10697 10698 10701 10704
10558 10564 10565 10564 10567 10569 10570 10572 10572 10575 10576 10573 10573 10575 10574 10574 10574 10574 10573 10571 10573 10576 10573 10569 10570 10573 10574 10573 10574 10578 10583 10587 10590 10594 10599 10604 10606 10608 10609 10609 10614 10623 10628 10629 10632 10637 10643 10647 10648 10648 10649 10649 10650 10649 10646 10645 10649 10653 10657 10661 10663 10664 10664 10663 10662 10663 10668 10672 10673 10676 10679 10681 10684 10687 10688 10689 10689 10691 10692 10692 10692 10692 10694 10696 10698 10701
10552 10559 10561 10559 10562 10564 10565 10566 10567 10570 10571 10568 10568 10569 10568 10567 10568 10568 10566 10565 10568 10569 10565 10565 10567 10566 10566 10567 10570 10575 10580 10582 10585 10588 10594 10600 10603 10604 10604 10605 10611 10618 10623 10624 10627 10633 10638 10640 10640 10641 10642 10643 10645 10646 10645 10646 10648 10651 10656 10660 10661 10661 10662 10662 10661 10661 10665 10670 10672 10675 10677 10679 10681 10684 10685 10685 10686 10687 10688 10687 10687 10688 10691 10693 10695 10697
10548 10553 10556 10555 10556 10558 10560 10561 10562 10564 10565 10563 10562 10563 10563 10562 10561 10561 10560 10560 10562 10562 10559 10560 10562 10560 10560 10564 10567 10571 10575 10578 10581 10585 10591 10596 10598 10599 10600 10602 10608 10615 10618 10621 10624 10628 10631 10631 10632 10635 10638 10640 10641 10642 10644 10646 10648 10651 10657 10659 10659 10659 10661 10662 10662 10662 10664 10669 10672 10675 10677 10678 10679 10680 10681 10681 10683 10684 10683 10683 10684 10686 10688 10690 10692 10693
10543 10546 10549 10550 10550 10553 10555 10556 10556 10559 10560 10558 10557 10557 10557 10556 10555 10554 10554 10555 10556 10556 10555 10555 10555 10555 10558 10562 10563 10566 10572 10575 10578 10583 10588 10591 10594 10595 10597 10600 10605 10610 10614 10617 10621 10626 10628 10628 10628 10632 10635 10638 10639 10640 10641 10643 10646 10651 10656 10657 10657 10658 10660 10660 10661 10663 10665 10669 10672 10675 10676 10677 10677 10677 10677 10678 10680 10680 10679 10679 10681 10683 10685 10687 10688 10689
10537 10540 10542 10544 10546 10548 10550 10550 10552 10554 10554 10553 10551 10552 10552 10550 10549 10548 10549 10550 10550 10551 10552 10551 10551 10552 10555 10559 10560 10564 10569 10571 10574 10579 10584 10587 10589 10591 10593 10596 10601 10604 10606 10609 10612 10619 10626 10629 10629 10631 10632 10632 10633 10635 10638 10641 10645 10649 10653 10655 10655 10656 10658 10660 10661 10663 10665 10667 10670 10673 10675 10675 10675 10674 10674 10675 10676 10676 10675 10676 10678 10680 10682 10684 10685 10686
10532 10533 10535 10539 10542 10544 10545 10545 10548 10549 10548 10546 10546 10547 10546 10545 10544 10543 10543 10544 10544 10547 10548 10548 10549 10550 10552 10556 10558 10561 10565 10567 10572 10576 10580 10583 10585 10587 10589 10592 10597 10600 10601 10603 10605 10609 10617 10624 10627 10630 10630 10629 10632 10634 10636 10638 10642 10646 10650 10653 10654 10654 10656 10658 10660 10662 10664 10665 10668 10671 10672 10672 10672 10672 10671 10671 10672 10672 10672 10673 10675 10677 10678 10680 10681 10682
10526 10528 10530 10535 10536 10537 10539 10540 10543 10545 10542 10541 10541 10541 10539 10539 10539 10538 10538 10538 10540 10542 10542 10543 10545 10547 10550 10554 10556 10558 10560 10565 10570 10574 10576 10579 10581 10583 10585 10589 10594 10597 10599 10602 10604 10606 10610 10616 10622 10629 10633 10634 10636 10637 10635 10635 10638 10641 10645 10649 10651 10652 10652 10655 10658 10660 10662 10664 10666 10669 10669 10667 10667 10668 10668 10668 10668 10669 10669 10670 10672 10674 10675 10677 10678 10678
10521 10524 10526 10529 10530 10530 10533 10536 10538 10539 10537 10537 10536 10535 10534 10533 10533 10533 10534 10534 10535 10536 10537 10538 10540 10543 10548 10551 10554 10555 10558 10563 10568 10570 10573 10575 10577 10579 10582 10586 10590 10593 10597 10601 10604 10606 10608 10611 10617 10625 10630 10632 10634 10633 10631 10630 10631 10633 10637 10642 10646 10647 10648 10651 10654 10657 10659 10662 10664 10666 10664 10662 10663 10664 10664 10663 10664 10665 10665 10667 10668 10670 10671 10672 10673 10674
10517 10519 10521 10524 10524 10525 10528 10531 10532 10532 10532 10531 10531 10531 10530 10528 10528 10529 10530 10530 10530 10532 10533 10533 10535 10540 10545 10547 10550 10554 10556 10559 10562 10564 10567 10570 10572 10574 10578 10583 10586 10589 10593 10596 10600 10604 10605 10607 10611 10617 10622 10626 10628 10624 10621 10621 10620 10621 10624 10628 10634 10639 10641 10645 10649 10653 10657 10659 10661 10661 10659 10657 10657 10659 10658 10658 10659 10660 10661 10662 10664 10665 10667 10667 10669 10669
10512 10513 10515 10517 10519 10521 10525 10525 10524 10526 10527 10526 10526 10526 10525 10523 10523 10525 10526 10526 10526 10527 10528 10528 10531 10537 10540 10542 10547 10552 10554 10555 10556 10558 10561 10564 10567 10570 10576 10580 10584 10587 10590 10591 10594 10598 10601 10604 10608 10612 10615 10619 10619 10615 10612 10615 10616 10617 10618 10621 10627 10631 10634 10639 10645 10650 10654 10657 10657 10655 10652 10651 10652 10653 10654 10654 10654 10655 10656 10657 10659 10660 10661 10662 10664 10665
10506 10508 10509 10512 10514 10517 10519 10518 10518 10521 10522 10521 10520 10520 10520 10518 10518 10520 10521 10521 10522 10523 10524 10525 10529 10534 10536 10539 10545 10550 10552 10551 10552 10554 10558 10561 10564 10567 10572 10577 10581 10585 10588 10588 10588 10590 10593 10596 10599 10604 10607 10608 10609 10608 10608 10612 10615 10617 10618 10622 10628 10630 10632 10638 10642 10647 10652 10652 10648 10644 10643 10645 10647 10648 10649 10650 10650 10650 10651 10652 10653 10655 10656 10658 10659 10660
10501 10503 10505 10509 10510 10510 10511 10512 10513 10515 10516 10516 10515 10515 10514 10513 10514 10515 10516 10517 10519 10521 10521 10522 10526 10530 10534 10539 10545 10550 10551 10549 10548 10551 10554 10558 10560 10562 10565 10570 10575 10579 10582 10582 10581 10581 10583 10584 10586 10590 10595 10598 10602 10603 10604 10607 10611 10614 10615 10619 10626 10629 10632 10637 10640 10645 10647 10641 10635 10635 10638 10641 10642 10644 10645 10646 10646 10646 10647 10648 10648 10649 10651 10652 10654 10655
10497 10500 10501 10504 10504 10504 10506 10508 10508 10509 10510 10510 10510 10509 10509 10509 10509 10509 10511 10513 10515 10517 10517 10518 10521 10526 10531 10536 10541 10545 10545 10543 10544 10546 10550 10553 10555 10556 10560 10564 10568 10572 10575 10577 10577 10576 10576 10576 10578 10582 10586 10591 10594 10596 10598 10602 10607 10611 10612 10615 10618 10622 10628 10634 10637 10640 10637 10631 10631 10634 10635 10636 10637 10638 10640 10641 10641 10642 10642 10643 10643 10644 10646 10648 10649 10650
10492 10495 10496 10498 10498 10499 10502 10504 10503 10503 10505 10505 10505 10504 10504 10505 10505 10505 10506 10509 10511 10512 10513 10514 10518 10524 10528 10530 10532 10534 10535 10537 10539 10541 10544 10548 10551 10552 10554 10558 10561 10565 10569 10572 10574 10574 10573 10574 10576 10579 10582 10585 10588 10591 10595 10599 10604 10606 10608 10609 10612 10616 10623 10629 10633 10633 10629 10629 10634 10633 10630 10630 10631 10632 10634 10635 10635 10635 10636 10637 10638 10640 10641 10643 10644 10645
10486 10489 10491 10493 10494 10495 10498 10499 10499 10499 10499 10499 10499 10499 10500 10501 10502 10502 10503 10505 10507 10508 10510 10512 10515 10520 10522 10523 10524 10526 10528 10531 10534 10536 10539 10543 10546 10548 10549 10552 10555 10559 10562 10566 10569 10570 10571 10572 10573 10576 10579 10582 10585 10588 10591 10595 10598 10599 10600 10604 10608 10613 10618 10623 10627 10625 10623 10628 10632 10627 10624 10625 10626 10627 10629 10629 10629 10629 10630 10631 10633 10635 10636 10637 10638 10639
10481 10484 10486 10488 10490 10492 10493 10493 10494 10494 10493 10493 10494 10495 10497 10498 10498 10500 10500 10501 10503 10505 10507 10510 10511 10513 10514 10516 10518 10521 10524 10526 10529 10532 10534 10537 10541 10543 10544 10547 10550 10553 10557 10560 10563 10564 10566 10567 10569 10572 10576 10578 10581 10584 10588 10590 10592 10593 10596 10600 10604 10608 10613 10617 10618 10617 10618 10624 10625 10621 10618 10620 10622 10623 10624 10624 10624 10624 10624 10625 10627 10629 10630 10631 10632 10633
10476 10478 10480 10482 10485 10487 10488 10488 10489 10489 10489 10489 10489 10491 10493 10493 10494 10495 10496 10497 10500 10502 10504 10506 10506 10507 10509 10510 10514 10517 10520 10522 10525 10528 10530 10533 10536 10538 10540 10542 10545 10548 10551 10555 10558 10560 10561 10562 10564 10567 10570 10573 10575 10579 10583 10585 10587 10590 10593 10596 10600 10604 10609 10612 10611 10610 10614 10619 10618 10616 10615 10615 10617 10619 10618 10619 10619 10618 10618 10619 10621 10622 10623 10625 10626 10627
10470 10471 10473 10476 10479 10480 10482 10484 10484 10485 10485 10485 10486 10488 10488 10489 10490 10490 10491 10494 10496 10497 10500 10501 10502 10503 10504 10506 10509 10512 10514 10518 10521 10524 10526 10528 10531 10534 10536 10538 10540 10542 10546 10549 10552 10555 10556 10558 10560 10562 10565 10567 10570 10573 10577 10580 10583 10586 10590 10593 10597 10600 10604 10606 10606 10606 10611 10613 10612 10611 10610 10610 10612 10614 10613 10614 10614 10612 10612 10613 10614 10616 10617 10618 10620 10620
10462 10464 10466 10470 10472 10474 10478 10479 10480 10482 10482 10481 10483 10484 10484 10485 10485 10485 10487 10489 10491 10492 10494 10496 10497 10498 10500 10502 10504 10507 10510 10513 10517 10520 10521 10523 10527 10530 10532 10534 10536 10538 10541 10544 10547 10549 10552 10554 10556 10557 10559 10562 10565 10568 10571 10575 10578 10582 10585 10589 10592 10595 10597 10599 10600 10603 10607 10608 10606 10605 10605 10605 10607 10608 10608 10607 10607 10606 10606 10607 10608 10610 10611 10612 10613 10613
10456 10459 10462 10465 10467 10469 10472 10474 10475 10477 10477 10477 10478 10478 10480 10481 10480 10481 10483 10484 10486 10487 10488 10490 10492 10494 10496 10497 10500 10502 10505 10509 10512 10514 10517 10519 10522 10525 10527 10529 10532 10534 10537 10540 10542 10544 10547 10548 10550 10552 10553 10556 10559 10562 10565 10569 10574 10577 10581 10585 10588 10590 10593 10594 10596 10599 10602 10602 10601 10600 10600 10601 10602 10603 10602 10601 10600 10600 10601 10602 10603 10604 10605 10605 10606 10607
10451 10455 10457 10459 10460 10463 10467 10469 10470 10471 10472 10472 10472 10473 10476 10477 10476 10478 10479 10481 10483 10484 10485 10487 10489 10490 10491 10494 10496 10497 10500 10504 10507 10509 10511 10514 10516 10519 10521 10524 10527 10529 10532 10535 10537 10539 10541 10543 10544 10546 10548 10551 10554 10557 10560 10565 10569 10573 10578 10581 10583 10585 10588 10590 10592 10595 10596 10596 10596 10596 10597 10597 10598 10597 10595 10593 10593 10595 10596 10597 10598 10598 10598 10599 10600 10601
10447 10450 10451 10453 10455 10458 10461 10463 10465 10465 10465 10466 10466 10468 10471 10472 10473 10475 10476 10477 10480 10481 10482 10484 10484 10485 10487 10490 10491 10493 10495 10498 10501 10503 10505 10508 10510 10513 10515 10518 10521 10523 10525 10527 10530 10533 10535 10537 10538 10540 10543 10546 10549 10553 10556 10560 10564 10568 10572 10575 10577 10580 10581 10582 10585 10588 10589 10590 10591 10592 10593 10593 10593 10592 10589 10587 10588 10589 10590 10591 10591 10591 10592 10593 10594 10594
10441 10443 10446 10448 10450 10452 10455 10458 10459 10458 10458 10460 10461 10462 10464 10467 10469 10471 10471 10472 10475 10477 10479 10479 10479 10481 10483 10485 10487 10488 10491 10493 10496 10498 10500 10502 10505 10507 10510 10512 10514 10516 10518 10520 10523 10526 10529 10531 10533 10535 10537 10541 10544 10548 10551 10554 10558 10562 10566 10569 10571 10573 10574 10576 10580 10582 10583 10584 10586 10587 10588 10588 10587 10587 10585 10583 10583 10583 10583 10584 10585 10586 10586 10587 10588 10588
10434 10437 10440 10442 10443 10446 10450 10451 10451 10451 10452 10454 10456 10456 10458 10461 10464 10466 10466 10466 10470 10473 10474 10474 10474 10476 10478 10480 10482 10484 10486 10488 10490 10493 10495 10497 10499 10501 10504 10507 10508 10510 10511 10514 10517 10519 10522 10525 10527 10530 10532 10535 10539 10542 10545 10548 10551 10555 10559 10562 10564 10566 10569 10571 10574 10576 10577 10578 10580 10581 10582 10583 10583 10583 10582 10579 10577 10578 10578 10579 10580 10581 10581 10581 10582 10582
10428 10431 10434 10436 10438 10440 10442 10443 10444 10446 10447 10449 10450 10450 10452 10455 10458 10461 10461 10462 10464 10467 10468 10468 10469 10471 10473 10475 10477 10479 10481 10484 10486 10488 10490 10492 10494 10496 10498 10501 10503 10504 10506 10508 10511 10513 10515 10519 10522 10524 10526 10529 10533 10536 10539 10542 10545 10548 10552 10555 10558 10561 10563 10565 10566 10568 10570 10572 10573 10575 10576 10576 10577 10578 10577 10574 10573 10573 10573 10574 10575 10575 10575 10575 10576 10577
10420 10423 10428 10430 10432 10434 10436 10437 10438 10440 10441 10442 10444 10445 10447 10449 10452 10455 10456 10457 10459 10461 10462 10463 10464 10466 10467 10469 10472 10474 10476 10478 10481 10483 10484 10486 10488 10490 10492 10495 10498 10500 10501 10503 10505 10507 10509 10513 10515 10518 10520 10524 10527 10531 10534 10536 10539 10541 10545 10548 10551 10553 10555 10557 10559 10561 10563 10565 10566 10568 10569 10570 10571 10572 10571 10569 10568 10569 10568 10568 10569 10569 10568 10569 10570 10572
10413 10416 10420 10423 10425 10428 10430 10430 10430 10432 10434 10436 10437 10439 10441 10444 10446 10448 10450 10452 10454 10456 10457 10458 10460 10461 10463 10465 10467 10469 10471 10473 10475 10477 10478 10480 10483 10485 10487 10490 10493 10495 10497 10498 10499 10502 10504 10507 10509 10512 10515 10519 10522 10525 10528 10531 10533 10535 10539 10542 10544 10546 10548 10551 10553 10555 10557 10559 10560 10562 10563 10565 10565 10566 10566 10565 10564 10564 10563 10563 10564 10562 10561 10562 10564 10566
10407 10409 10413 10416 10419 10421 10422 10422 10423 10426 10429 10429 10429 10432 10435 10439 10441 10443 10445 10446 10448 10450 10452 10454 10455 10456 10458 10460 10461 10463 10465 10468 10469 10471 10473 10476 10478 10480 10482 10484 10487 10489 10491 10493 10494 10497 10499 10501 10504 10507 10510 10513 10516 10519 10522 10525 10527 10530 10533 10535 10537 10539 10542 10545 10548 10550 10552 10554 10555 10556 10558 10559 10558 10559 10560 10560 10559 10558 10557 10556 10556 10555 10553 10554 10557 10560
10400 10403 10406 10409 10411 10413 10414 10415 10416 10419 10421 10421 10422 10425 10429 10432 10435 10437 10439 10441 10443 10445 10446 10448 10450 10451 10453 10454 10456 10457 10460 10462 10464 10466 10468 10471 10473 10474 10476 10478 10480 10483 10485 10487 10489 10491 10493 10495 10499 10502 10505 10508 10511 10514 10516 10519 10521 10524 10526 10529 10531 10533 10536 10539 10541 10543 10546 10548 10549 10551 10552 10552 10551 10551 10553 10552 10551 10551 10549 10548 10548 10548 10548 10549 10551 10553
10393 10397 10401 10403 10404 10405 10406 10407 10408 10410 10413 10415 10416 10418 10421 10425 10430 10432 10433 10435 10438 10440 10441 10443 10444 10445 10447 10449 10450 10452 10455 10457 10459 10461 10462 10465 10467 10468 10470 10472 10474 10476 10479 10481 10484 10485 10487 10490 10493 10496 10499 10502 10505 10508 10510 10512 10515 10518 10520 10522 10525 10527 10529 10532 10534 10536 10538 10541 10543 10545 10545 10545 10544 10544 10545 10545 10544 10544 10543 10542 10542 10542 10543 10544 10545 10546
10388 10392 10395 10396 10397 10398 10399 10400 10400 10402 10406 10409 10410 10412 10415 10419 10423 10427 10428 10430 10432 10434 10436 10438 10439 10440 10442 10444 10445 10447 10449 10451 10453 10455 10456 10458 10460 10462 10464 10466 10468 10470 10472 10475 10478 10480 10481 10484 10488 10490 10493 10496 10499 10501 10503 10505 10508 10511 10513 10516 10518 10521 10523 10525 10527 10529 10531 10533 10535 10537 10538 10538 10537 10537 10537 10538 10538 10537 10536 10537 10537 10536 10537 10538 10538 10538
10382 10385 10387 10390 10390 10390 10390 10392 10393 10395 10398 10402 10405 10407 10411 10414 10417 10421 10423 10425 10426 10428 10431 10433 10434 10435 10436 10438 10439 10441 10442 10444 10446 10448 10450 10452 10454 10456 10458 10459 10461 10463 10466 10468 10471 10473 10476 10478 10481 10484 10487 10490 10492 10495 10496 10499 10502 10505 10507 10510 10512 10515 10517 10519 10520 10521 10523 10525 10526 10528 10530 10531 10530 10530 10531 10531 10531 10531 10530 10531 10531 10531 10532 10532 10532 10531
10376 10378 10380 10382 10383 10382 10383 10385 10387 10389 10392 10395 10399 10403 10406 10409 10412 10415 10418 10420 10421 10423 10424 10426 10428 10430 10431 10432 10433 10435 10437 10438 10440 10442 10444 10446 10447 10449 10451 10453 10454 10456 10459 10461 10464 10467 10470 10472 10474 10478 10481 10483 10486 10488 10490 10493 10496 10498 10501 10503 10505 10508 10510 10511 10513 10514 10515 10517 10518 10520 10522 10523 10523 10523 10524 10524 10524 10524 10524 10524 10525 10525 10525 10526 10526 10526
10369 10372 10374 10376 10376 10376 10378 10380 10382 10385 10387 10390 10394 10397 10401 10404 10407 10409 10412 10414 10416 10417 10418 10419 10421 10423 10425 10426 10428 10429 10430 10432 10433 10435 10437 10439 10440 10442 10444 10445 10447 10449 10452 10454 10457 10460 10463 10466 10468 10471 10474 10476 10479 10481 10484 10487 10489 10492 10494 10496 10498 10500 10502 10504 10506 10507 10508 10509 10511 10512 10514 10515 10515 10516 10517 10518 10518 10518 10517 10518 10519 10519 10519 10519 10520 10519
10363 10366 10369 10370 10370 10371 10373 10375 10378 10380 10382 10385 10388 10392 10396 10399 10402 10404 10406 10408 10410 10412 10413 10414 10415 10416 10418 10420 10422 10423 10424 10426 10427 10428 10430 10432 10434 10436 10437 10438 10440 10442 10445 10448 10451 10453 10456 10459 10462 10464 10467 10470 10472 10474 10477 10480 10482 10484 10487 10488 10491 10493 10495 10496 10498 10499 10500 10502 10504 10505 10506 10507 10508 10509 10509 10510 10511 10511 10511 10511 10512 10512 10512 10512 10512 10512
10356 10359 10362 10363 10364 10366 10368 10370 10372 10375 10377 10380 10383 10386 10390 10394 10397 10399 10401 10403 10405 10406 10407 10408 10409 10410 10412 10414 10415 10417 10418 10420 10421 10422 10422 10424 10426 10428 10430 10431 10433 10435 10438 10441 10444 10446 10448 10451 10454 10457 10460 10462 10464 10467 10470 10473 10475 10477 10479 10481 10483 10485 10487 10489 10490 10491 10492 10494 10496 10497 10498 10499 10500 10501 10501 10502 10503 10503 10503 10503 10504 10504 10504 10505 10505 10505
10351 10354 10357 10359 10360 10362 10364 10365 10368 10370 10373 10375 10378 10381 10384 10387 10390 10393 10395 10397 10398 10399 10400 10401 10402 10403 10405 10406 10408 10410 10412 10413 10414 10415 10415 10416 10418 10420 10422 10424 10426 10428 10431 10434 10436 10438 10441 10443 10446 10449 10452 10454 10456 10459 10462 10465 10467 10469 10471 10473 10475 10477 10479 10480 10481 10483 10484 10486 10487 10488 10489 10491 10492 10493 10493 10494 10494 10495 10495 10495 10496 10496 10496 10497 10497 10497
10348 10351 10353 10355 10357 10359 10360 10361 10364 10366 10368 10370 10373 10376 10379 10381 10383 10386 10388 10390 10391 10392 10393 10394 10395 10396 10397 10398 10400 10402 10403 10405 10406 10407 10408 10408 10410 10412 10414 10417 10419 10421 10424 10426 10428 10431 10433 10435 10437 10440 10442 10445 10447 10450 10454 10457 10460 10461 10463 10465 10467 10469 10470 10472 10473 10475 10476 10477 10478 10479 10480 10482 10483 10484 10484 10485 10486 10487 10487 10488 10488 10488 10488 10488 10488 10488
10345 10347 10350 10352 10354 10355 10357 10358 10360 10361 10363 10365 10368 10370 10373 10375 10377 10379 10381 10382 10384 10385 10386 10387 10387 10388 10389 10389 10391 10393 10394 10396 10397 10399 10400 10400 10402 10404 10406 10409 10411 10413 10415 10417 10420 10422 10424 10427 10429 10431 10434 10436 10438 10441 10444 10448 10450 10452 10454 10456 10458 10460 10461 10463 10465 10466 10467 10468 10469 10470 10471 10472 10473 10474 10475 10477 10478 10478 10479 10479 10479 10479 10479 10479 10479 10479
10342 10344 10347 10349 10351 10352 10353 10355 10357 10358 10360 10361 10363 10365 10367 10369 10371 10372 10373 10374 10375 10376 10377 10378 10379 10379 10380 10381 10382 10383 10385 10386 10388 10389 10390 10391 10393 10395 10397 10399 10401 10404 10406 10408 10410 10413 10415 10418 10420 10422 10425 10427 10429 10431 10434 10437 10440 10442 10444 10446 10448 10450 10452 10454 10456 10457 10458 10459 10459 10460 10461 10462 10463 10465 10467 10468 10469 10469 10470 10470 10470 10470 10470 10470 10470 10470